Aérodrome :
LOGIN :

S'inscrire | Disclaimer

   EN    FR    IT 

 










Légende :    VFR   VFR Marginal   IFR   IFR Intensif   IFR Très Intensif
Visi : 
Plafond : 
>= 8 km
>= 3000ft
5 à 8 km
1000 à 3000 ft
1500m à 5 km
500 à 1000 ft
800 à 1500m
200 à 500 ft
< 800m
< 200 ft
Symboles :   Orages  Brouillard  Fortes neiges  Fortes précipitations  Vent > 20 kt
SIGMETs :   Divers  Orages  Givrage  Turbulence  Onde Orograph.  Cendres Volcan.






- Altitude de l'aérodrome : 610 ft
- Code IATA : VXO


ESMX - Växjö Kronoberg

DERNIER METAR :
  • 110950Z 07004KT 010V150 CAVOK 21/11 Q1026

METARs EXPIRÉS :
  • 110920Z 05006KT 010V120 CAVOK 21/13 Q1026
  • 110850Z 05007KT 020V100 9999 NSC 20/12 Q1026
  • 110820Z 08005KT 020V160 CAVOK 19/12 Q1026
  • 110750Z 06006KT 010V120 9999 NSC 19/13 Q1026
  • 110720Z 06005KT 020V110 CAVOK 18/13 Q1026

TAF TAF ESMX
Valide du 11 à 09h jusqu'au 11 à 15h UTC


110830Z 1109/1115 08007KT CAVOK



MET'MAP, la Météo Aéronautique d'un coup d'oeil ! - Copyright ORBIFLY Décembre 2007 - Disclaimer

ORBIFLY MET'MAP TEAM :

Programmation & Développement : Alexandra Zaïnal
Sur une idée originale de : Baudouin d'Aumeries
Assistance à la programmation : Marc-Olivier Méhu
Soutien technique & logistique : Manuel Goepfert

Contact : metmap@orbifly.com




SOURCES & CREDITS :

   NOAA